GFSNE_prec_precacc_051.txt.gz
Total_Precipitation_Accumulation
0.31 0.29 0.24 0.23 0.21 0.18 0.17 0.22 0.34 0.18 0.02 0.00 0.02 0.05 0.11 0.15 0.21 0.35 0.47 0.44 0.37 0.35 0.38 0.33 0.25 0.28 0.50 0.62 0.68 0.81 1.01 1.06 0.87 0.73 0.64 0.65 0.76 0.83
0.13 0.09 0.07 0.06 0.06 0.08 0.09 0.08 0.09 0.11 0.05 0.00 0.00 0.00 0.00 0.03 0.09 0.19 0.40 0.51 0.34 0.29 0.35 0.41 0.44 0.42 0.38 0.58 0.85 0.90 0.93 1.03 1.02 0.98 0.97 0.73 0.69 0.78
0.02 0.02 0.01 0.01 0.01 0.01 0.02 0.03 0.04 0.05 0.03 0.00 0.00 0.00 0.00 0.01 0.03 0.10 0.22 0.43 0.54 0.38 0.27 0.33 0.41 0.47 0.52 0.46 0.50 0.84 1.19 1.07 0.87 0.77 0.79 0.88 0.87 0.78
0.00 0.00 0.00 0.00 0.00 0.00 0.01 0.01 0.01 0.01 0.02 0.01 0.00 0.00 0.00 0.00 0.01 0.03 0.10 0.24 0.42 0.53 0.49 0.31 0.26 0.33 0.42 0.55 0.56 0.54 0.71 1.17 1.17 0.86 0.70 0.75 0.87 1.00
0.00 0.00 0.00 0.00 0.00 0.00 0.00 0.01 0.01 0.01 0.02 0.03 0.01 0.00 0.00 0.00 0.00 0.02 0.03 0.07 0.16 0.30 0.43 0.55 0.44 0.27 0.27 0.31 0.42 0.53 0.50 0.50 0.85 1.10 0.90 0.73 0.69 0.74
0.00 0.00 0.00 0.00 0.00 0.00 0.01 0.01 0.01 0.03 0.03 0.03 0.01 0.00 0.00 0.00 0.02 0.02 0.03 0.05 0.06 0.13 0.31 0.49 0.55 0.48 0.31 0.23 0.27 0.31 0.39 0.52 0.53 0.69 1.04 1.04 0.80 0.77
0.00 0.00 0.00 0.00 0.00 0.01 0.02 0.01 0.03 0.04 0.04 0.05 0.04 0.03 0.02 0.02 0.03 0.05 0.05 0.05 0.07 0.08 0.18 0.36 0.52 0.60 0.61 0.37 0.21 0.23 0.30 0.33 0.42 0.52 0.61 0.83 1.08 0.87
0.01 0.00 0.00 0.00 0.01 0.01 0.00 0.00 0.01 0.05 0.10 0.12 0.11 0.09 0.05 0.04 0.05 0.10 0.11 0.10 0.11 0.11 0.15 0.26 0.42 0.54 0.65 0.68 0.49 0.34 0.27 0.31 0.34 0.40 0.49 0.53 0.61 0.95
0.01 0.01 0.01 0.00 0.00 0.01 0.01 0.01 0.01 0.02 0.09 0.16 0.24 0.13 0.10 0.08 0.10 0.16 0.14 0.14 0.12 0.08 0.14 0.24 0.34 0.46 0.50 0.67 0.72 0.51 0.44 0.45 0.47 0.46 0.46 0.52 0.51 0.54
0.01 0.01 0.02 0.01 0.01 0.03 0.07 0.13 0.08 0.05 0.04 0.05 0.14 0.12 0.07 0.07 0.12 0.17 0.22 0.26 0.19 0.07 0.10 0.25 0.26 0.38 0.39 0.46 0.67 0.86 0.73 0.61 0.63 0.68 0.63 0.57 0.62 0.58
0.01 0.02 0.04 0.06 0.04 0.08 0.31 0.39 0.18 0.07 0.04 0.05 0.08 0.07 0.08 0.09 0.15 0.43 0.50 0.50 0.35 0.12 0.12 0.22 0.19 0.28 0.38 0.51 0.65 0.70 0.88 0.96 0.79 0.75 0.78 0.69 0.63 0.67
0.05 0.04 0.03 0.04 0.11 0.19 0.45 0.47 0.39 0.10 0.04 0.07 0.07 0.05 0.04 0.07 0.07 0.31 0.44 0.48 0.32 0.28 0.10 0.21 0.17 0.20 0.38 0.49 0.50 0.71 0.82 0.86 0.93 0.86 0.74 0.75 0.72 0.71
0.10 0.06 0.06 0.20 0.28 0.22 0.25 0.39 0.36 0.15 0.11 0.14 0.15 0.15 0.14 0.14 0.16 0.22 0.35 0.58 0.48 0.29 0.04 0.19 0.18 0.17 0.27 0.41 0.52 0.56 0.66 0.83 0.88 0.95 0.94 0.81 0.74 0.69
0.21 0.16 0.22 0.18 0.18 0.17 0.19 0.27 0.23 0.22 0.31 0.35 0.32 0.25 0.27 0.22 0.19 0.22 0.24 0.28 0.29 0.27 0.13 0.31 0.35 0.16 0.28 0.38 0.38 0.54 0.66 0.74 0.76 0.87 0.95 1.00 0.94 0.87
0.24 0.23 0.16 0.13 0.09 0.08 0.13 0.20 0.21 0.35 0.39 0.35 0.31 0.21 0.16 0.16 0.17 0.23 0.29 0.36 0.37 0.33 0.24 0.35 0.31 0.18 0.28 0.34 0.35 0.38 0.50 0.71 0.72 0.70 0.75 0.79 0.77 0.74
0.12 0.11 0.15 0.13 0.11 0.17 0.22 0.23 0.38 0.47 0.40 0.35 0.23 0.19 0.21 0.23 0.27 0.28 0.31 0.35 0.65 0.62 0.36 0.31 0.26 0.34 0.42 0.28 0.21 0.30 0.33 0.49 0.60 0.66 0.66 0.75 0.78 0.70
0.16 0.18 0.14 0.09 0.09 0.11 0.15 0.13 0.15 0.14 0.19 0.20 0.21 0.19 0.25 0.21 0.24 0.29 0.30 0.26 0.42 0.34 0.42 0.41 0.37 0.39 0.40 0.38 0.50 0.30 0.30 0.34 0.43 0.50 0.56 0.65 0.72 0.81
0.17 0.16 0.15 0.16 0.17 0.16 0.19 0.21 0.12 0.13 0.11 0.13 0.21 0.18 0.21 0.27 0.19 0.16 0.21 0.28 0.23 0.29 0.30 0.31 0.39 0.67 0.62 0.41 0.29 0.31 0.36 0.39 0.33 0.36 0.41 0.50 0.55 0.58
0.14 0.17 0.19 0.21 0.20 0.16 0.16 0.19 0.24 0.27 0.18 0.16 0.23 0.24 0.18 0.20 0.29 0.21 0.21 0.32 0.31 0.23 0.34 0.39 0.38 0.44 0.58 0.52 0.31 0.20 0.26 0.22 0.31 0.37 0.42 0.42 0.39 0.47
0.14 0.17 0.20 0.19 0.17 0.11 0.11 0.14 0.16 0.18 0.17 0.17 0.26 0.20 0.16 0.13 0.16 0.16 0.18 0.18 0.20 0.19 0.17 0.22 0.25 0.28 0.35 0.40 0.47 0.31 0.26 0.21 0.27 0.31 0.40 0.46 0.47 0.49
0.16 0.16 0.18 0.15 0.11 0.10 0.11 0.11 0.14 0.16 0.16 0.17 0.20 0.19 0.15 0.15 0.11 0.11 0.09 0.10 0.10 0.13 0.18 0.19 0.19 0.18 0.20 0.26 0.38 0.38 0.38 0.28 0.18 0.23 0.28 0.45 0.41 0.35
0.17 0.16 0.14 0.13 0.12 0.09 0.09 0.09 0.09 0.11 0.09 0.10 0.14 0.13 0.15 0.15 0.13 0.14 0.12 0.10 0.13 0.13 0.13 0.13 0.16 0.12 0.15 0.14 0.28 0.21 0.28 0.34 0.25 0.17 0.19 0.23 0.29 0.36
0.15 0.14 0.12 0.09 0.09 0.08 0.08 0.07 0.06 0.08 0.09 0.09 0.09 0.12 0.15 0.16 0.16 0.15 0.12 0.10 0.09 0.08 0.08 0.12 0.13 0.11 0.11 0.08 0.15 0.21 0.14 0.18 0.24 0.15 0.13 0.16 0.14 0.17

GFSNE_prec_precacc_054.txt.gz
Total_Precipitation_Accumulation
0.33 0.31 0.26 0.24 0.22 0.18 0.17 0.22 0.34 0.18 0.02 0.00 0.02 0.05 0.11 0.15 0.21 0.35 0.47 0.44 0.37 0.35 0.38 0.33 0.25 0.28 0.50 0.62 0.68 0.81 1.01 1.06 0.87 0.73 0.64 0.65 0.77 0.83
0.14 0.11 0.09 0.07 0.06 0.08 0.09 0.08 0.09 0.11 0.05 0.00 0.00 0.00 0.00 0.03 0.09 0.19 0.40 0.51 0.34 0.29 0.35 0.41 0.44 0.42 0.38 0.58 0.86 0.90 0.93 1.03 1.02 0.98 0.97 0.73 0.69 0.78
0.02 0.02 0.02 0.02 0.01 0.01 0.02 0.03 0.04 0.05 0.03 0.00 0.00 0.00 0.00 0.01 0.03 0.10 0.22 0.43 0.54 0.38 0.27 0.33 0.41 0.47 0.53 0.47 0.50 0.84 1.19 1.07 0.87 0.77 0.79 0.88 0.88 0.78
0.01 0.00 0.00 0.00 0.00 0.00 0.01 0.01 0.01 0.01 0.02 0.01 0.00 0.00 0.00 0.00 0.01 0.03 0.10 0.24 0.42 0.53 0.49 0.31 0.26 0.33 0.42 0.55 0.56 0.54 0.71 1.17 1.17 0.86 0.70 0.75 0.88 1.01
0.00 0.00 0.00 0.00 0.00 0.00 0.00 0.01 0.01 0.01 0.02 0.03 0.01 0.00 0.00 0.00 0.00 0.02 0.03 0.07 0.16 0.30 0.43 0.55 0.45 0.28 0.27 0.32 0.42 0.53 0.50 0.50 0.85 1.10 0.90 0.73 0.69 0.74
0.01 0.01 0.00 0.00 0.00 0.00 0.01 0.01 0.01 0.03 0.03 0.03 0.01 0.00 0.00 0.00 0.02 0.03 0.04 0.05 0.06 0.13 0.31 0.49 0.55 0.48 0.31 0.24 0.27 0.31 0.39 0.52 0.53 0.69 1.04 1.04 0.80 0.79
0.00 0.00 0.00 0.00 0.00 0.01 0.02 0.01 0.03 0.04 0.04 0.05 0.04 0.03 0.02 0.02 0.04 0.05 0.05 0.06 0.07 0.09 0.18 0.36 0.52 0.60 0.61 0.38 0.22 0.24 0.30 0.33 0.42 0.52 0.61 0.83 1.09 0.93
0.01 0.00 0.00 0.00 0.01 0.01 0.00 0.00 0.01 0.05 0.10 0.12 0.12 0.10 0.05 0.04 0.07 0.13 0.13 0.11 0.11 0.11 0.16 0.27 0.43 0.54 0.66 0.69 0.51 0.35 0.27 0.31 0.34 0.40 0.50 0.53 0.61 0.98
0.01 0.01 0.01 0.00 0.00 0.01 0.01 0.01 0.01 0.02 0.09 0.17 0.26 0.15 0.13 0.10 0.11 0.17 0.14 0.14 0.12 0.08 0.15 0.25 0.35 0.46 0.50 0.68 0.72 0.52 0.44 0.45 0.47 0.46 0.46 0.53 0.52 0.56
0.01 0.01 0.02 0.01 0.01 0.03 0.07 0.13 0.09 0.05 0.04 0.05 0.14 0.12 0.08 0.07 0.12 0.17 0.22 0.27 0.19 0.07 0.11 0.27 0.26 0.38 0.39 0.46 0.67 0.86 0.73 0.61 0.63 0.68 0.63 0.57 0.64 0.60
0.01 0.02 0.04 0.06 0.04 0.08 0.31 0.39 0.18 0.07 0.04 0.06 0.08 0.08 0.08 0.09 0.15 0.44 0.50 0.52 0.38 0.14 0.14 0.25 0.20 0.29 0.38 0.51 0.65 0.70 0.88 0.96 0.79 0.75 0.78 0.69 0.63 0.67
0.05 0.04 0.03 0.04 0.11 0.19 0.45 0.47 0.39 0.11 0.04 0.07 0.07 0.05 0.05 0.08 0.09 0.33 0.47 0.55 0.36 0.29 0.12 0.25 0.19 0.22 0.41 0.52 0.52 0.71 0.82 0.86 0.93 0.86 0.74 0.75 0.72 0.72
0.10 0.06 0.06 0.20 0.28 0.22 0.25 0.39 0.36 0.15 0.11 0.14 0.16 0.15 0.15 0.15 0.16 0.22 0.35 0.58 0.48 0.30 0.05 0.24 0.22 0.18 0.28 0.42 0.56 0.62 0.68 0.84 0.88 0.95 0.94 0.81 0.74 0.69
0.21 0.16 0.22 0.18 0.18 0.17 0.19 0.27 0.23 0.22 0.31 0.35 0.32 0.25 0.27 0.22 0.19 0.22 0.24 0.29 0.30 0.29 0.14 0.34 0.41 0.16 0.29 0.39 0.40 0.60 0.72 0.79 0.78 0.88 0.95 1.00 0.94 0.87
0.24 0.23 0.16 0.13 0.09 0.08 0.13 0.20 0.21 0.35 0.39 0.36 0.31 0.21 0.17 0.17 0.17 0.24 0.30 0.36 0.37 0.38 0.28 0.36 0.32 0.18 0.29 0.34 0.37 0.48 0.62 0.75 0.74 0.71 0.75 0.79 0.77 0.74
0.12 0.11 0.15 0.13 0.11 0.17 0.22 0.23 0.38 0.47 0.40 0.35 0.23 0.19 0.21 0.23 0.27 0.28 0.31 0.36 0.65 0.69 0.44 0.34 0.27 0.34 0.42 0.28 0.22 0.31 0.35 0.52 0.61 0.66 0.66 0.75 0.78 0.71
0.16 0.18 0.14 0.09 0.09 0.11 0.15 0.13 0.15 0.14 0.19 0.20 0.21 0.19 0.25 0.21 0.24 0.29 0.30 0.26 0.42 0.34 0.45 0.44 0.41 0.42 0.40 0.39 0.51 0.31 0.32 0.38 0.45 0.51 0.56 0.65 0.73 0.82
0.17 0.16 0.15 0.16 0.18 0.16 0.19 0.21 0.12 0.13 0.11 0.13 0.21 0.18 0.21 0.27 0.19 0.16 0.22 0.28 0.23 0.29 0.30 0.31 0.39 0.70 0.68 0.43 0.30 0.37 0.59 0.53 0.40 0.36 0.42 0.53 0.59 0.60
0.15 0.17 0.20 0.21 0.21 0.16 0.16 0.19 0.24 0.27 0.18 0.16 0.23 0.25 0.18 0.20 0.29 0.21 0.22 0.32 0.31 0.23 0.34 0.39 0.39 0.45 0.63 0.73 0.32 0.21 0.32 0.25 0.31 0.37 0.42 0.43 0.42 0.48
0.15 0.18 0.20 0.20 0.17 0.11 0.11 0.14 0.16 0.18 0.17 0.17 0.26 0.21 0.16 0.13 0.16 0.16 0.18 0.18 0.20 0.19 0.17 0.22 0.26 0.28 0.36 0.41 0.48 0.32 0.26 0.21 0.27 0.32 0.40 0.46 0.47 0.49
0.17 0.17 0.19 0.16 0.12 0.10 0.11 0.11 0.14 0.16 0.17 0.17 0.20 0.19 0.15 0.15 0.12 0.11 0.09 0.10 0.10 0.13 0.18 0.20 0.19 0.18 0.20 0.26 0.39 0.41 0.38 0.28 0.18 0.23 0.28 0.45 0.45 0.36
0.17 0.16 0.15 0.14 0.12 0.09 0.10 0.09 0.09 0.11 0.09 0.10 0.14 0.13 0.15 0.15 0.13 0.14 0.12 0.10 0.13 0.13 0.13 0.13 0.16 0.13 0.17 0.16 0.33 0.29 0.28 0.34 0.25 0.17 0.19 0.23 0.30 0.39
0.15 0.15 0.12 0.10 0.10 0.09 0.08 0.07 0.06 0.08 0.09 0.09 0.09 0.12 0.15 0.16 0.16 0.15 0.12 0.10 0.09 0.08 0.08 0.12 0.14 0.12 0.13 0.09 0.18 0.27 0.14 0.18 0.24 0.15 0.13 0.16 0.14 0.17

GFSNE_prec_precacc_060.txt.gz
Total_Precipitation_Accumulation
0.33 0.31 0.26 0.24 0.22 0.18 0.17 0.23 0.35 0.19 0.02 0.00 0.02 0.05 0.11 0.15 0.21 0.35 0.47 0.44 0.37 0.35 0.38 0.33 0.25 0.28 0.50 0.62 0.68 0.81 1.01 1.06 0.87 0.74 0.64 0.65 0.77 0.84
0.14 0.11 0.09 0.07 0.06 0.08 0.09 0.08 0.09 0.13 0.05 0.00 0.00 0.00 0.00 0.03 0.09 0.19 0.40 0.51 0.34 0.29 0.35 0.41 0.44 0.42 0.38 0.58 0.86 0.91 0.94 1.04 1.02 0.99 0.97 0.74 0.69 0.78
0.02 0.02 0.02 0.02 0.01 0.01 0.02 0.03 0.05 0.05 0.03 0.00 0.00 0.00 0.00 0.01 0.03 0.10 0.22 0.43 0.54 0.38 0.27 0.33 0.41 0.47 0.53 0.47 0.50 0.85 1.20 1.08 0.87 0.78 0.80 0.88 0.88 0.79
0.01 0.00 0.00 0.00 0.00 0.00 0.01 0.01 0.01 0.01 0.02 0.01 0.00 0.00 0.00 0.00 0.01 0.03 0.10 0.24 0.42 0.53 0.49 0.31 0.26 0.33 0.42 0.55 0.56 0.55 0.71 1.17 1.17 0.86 0.70 0.75 0.88 1.01
0.00 0.00 0.00 0.00 0.00 0.00 0.00 0.01 0.01 0.01 0.02 0.03 0.01 0.00 0.00 0.00 0.00 0.02 0.03 0.07 0.16 0.30 0.43 0.55 0.45 0.28 0.28 0.32 0.42 0.53 0.50 0.50 0.85 1.10 0.90 0.73 0.69 0.74
0.01 0.01 0.00 0.00 0.00 0.00 0.01 0.01 0.01 0.03 0.03 0.03 0.01 0.00 0.00 0.00 0.02 0.03 0.04 0.05 0.06 0.13 0.31 0.49 0.55 0.48 0.31 0.24 0.28 0.31 0.40 0.52 0.54 0.69 1.04 1.04 0.80 0.79
0.00 0.00 0.00 0.00 0.00 0.01 0.02 0.01 0.03 0.04 0.04 0.05 0.04 0.03 0.02 0.02 0.04 0.06 0.07 0.06 0.07 0.09 0.18 0.36 0.52 0.60 0.61 0.38 0.22 0.25 0.31 0.34 0.43 0.53 0.61 0.83 1.09 0.94
0.01 0.00 0.00 0.00 0.01 0.01 0.00 0.00 0.01 0.05 0.10 0.12 0.12 0.10 0.06 0.06 0.10 0.15 0.14 0.11 0.12 0.11 0.16 0.27 0.43 0.54 0.66 0.69 0.51 0.35 0.27 0.32 0.35 0.41 0.50 0.54 0.62 0.99
0.01 0.01 0.01 0.00 0.00 0.01 0.01 0.01 0.01 0.02 0.09 0.17 0.26 0.16 0.15 0.11 0.12 0.17 0.14 0.15 0.12 0.08 0.16 0.25 0.35 0.46 0.50 0.68 0.72 0.52 0.44 0.45 0.48 0.47 0.46 0.54 0.53 0.57
0.01 0.01 0.02 0.01 0.01 0.03 0.07 0.13 0.09 0.05 0.04 0.05 0.14 0.12 0.08 0.07 0.13 0.18 0.24 0.27 0.20 0.07 0.12 0.35 0.26 0.38 0.39 0.46 0.67 0.86 0.73 0.61 0.63 0.69 0.63 0.57 0.64 0.62
0.01 0.02 0.04 0.06 0.04 0.08 0.31 0.39 0.18 0.07 0.04 0.06 0.08 0.08 0.08 0.09 0.15 0.46 0.53 0.56 0.40 0.15 0.15 0.27 0.20 0.29 0.38 0.51 0.65 0.70 0.89 0.96 0.79 0.75 0.78 0.69 0.63 0.67
0.05 0.04 0.03 0.04 0.11 0.19 0.45 0.47 0.39 0.11 0.04 0.07 0.07 0.05 0.05 0.08 0.09 0.35 0.50 0.59 0.38 0.30 0.12 0.26 0.19 0.23 0.45 0.52 0.52 0.71 0.82 0.86 0.93 0.86 0.74 0.75 0.72 0.72
0.10 0.06 0.06 0.20 0.28 0.22 0.25 0.39 0.36 0.15 0.11 0.14 0.16 0.15 0.15 0.15 0.16 0.22 0.35 0.60 0.53 0.32 0.05 0.30 0.30 0.20 0.34 0.44 0.57 0.63 0.74 0.89 0.90 0.95 0.94 0.81 0.74 0.69
0.21 0.16 0.22 0.18 0.18 0.17 0.19 0.27 0.23 0.22 0.31 0.35 0.32 0.25 0.27 0.22 0.19 0.22 0.24 0.29 0.31 0.31 0.16 0.50 0.63 0.24 0.34 0.41 0.40 0.61 0.77 0.92 0.94 0.89 0.95 1.00 0.94 0.87
0.24 0.23 0.16 0.13 0.09 0.08 0.13 0.20 0.21 0.35 0.39 0.36 0.31 0.21 0.17 0.17 0.17 0.24 0.30 0.36 0.37 0.38 0.33 0.43 0.39 0.22 0.33 0.38 0.38 0.48 0.75 0.88 0.80 0.73 0.78 0.79 0.77 0.74
0.13 0.12 0.15 0.13 0.11 0.17 0.22 0.23 0.38 0.47 0.40 0.35 0.23 0.19 0.21 0.23 0.27 0.28 0.31 0.36 0.65 0.69 0.45 0.36 0.30 0.38 0.45 0.29 0.23 0.31 0.35 0.55 0.72 0.70 0.67 0.76 0.78 0.71
0.18 0.20 0.15 0.10 0.10 0.11 0.15 0.13 0.15 0.14 0.19 0.20 0.21 0.19 0.25 0.21 0.24 0.29 0.30 0.26 0.42 0.34 0.45 0.44 0.41 0.42 0.42 0.40 0.52 0.31 0.33 0.39 0.48 0.52 0.56 0.65 0.73 0.82
0.19 0.17 0.15 0.16 0.18 0.16 0.19 0.21 0.12 0.13 0.11 0.13 0.21 0.18 0.21 0.27 0.19 0.16 0.22 0.28 0.23 0.29 0.30 0.31 0.40 0.70 0.68 0.45 0.30 0.42 0.83 0.70 0.48 0.36 0.42 0.56 0.65 0.67
0.19 0.18 0.20 0.21 0.21 0.16 0.16 0.19 0.24 0.27 0.18 0.16 0.23 0.25 0.18 0.20 0.29 0.21 0.22 0.32 0.31 0.23 0.34 0.39 0.40 0.45 0.64 0.77 0.35 0.23 0.42 0.37 0.36 0.37 0.42 0.51 0.58 0.58
0.16 0.18 0.20 0.20 0.17 0.11 0.11 0.14 0.16 0.18 0.17 0.17 0.26 0.21 0.16 0.13 0.16 0.16 0.18 0.18 0.20 0.19 0.17 0.22 0.26 0.28 0.37 0.43 0.49 0.32 0.26 0.22 0.28 0.33 0.42 0.49 0.51 0.53
0.17 0.18 0.20 0.16 0.12 0.11 0.11 0.11 0.14 0.16 0.17 0.17 0.20 0.19 0.15 0.15 0.12 0.11 0.09 0.10 0.10 0.13 0.18 0.20 0.19 0.18 0.22 0.28 0.41 0.43 0.38 0.28 0.18 0.23 0.29 0.48 0.48 0.36
0.18 0.17 0.15 0.14 0.13 0.09 0.10 0.09 0.09 0.11 0.09 0.10 0.14 0.13 0.15 0.15 0.13 0.14 0.12 0.10 0.13 0.13 0.13 0.13 0.16 0.15 0.23 0.20 0.35 0.31 0.28 0.34 0.25 0.17 0.19 0.25 0.34 0.41
0.18 0.17 0.13 0.11 0.10 0.09 0.08 0.07 0.06 0.08 0.09 0.09 0.09 0.12 0.15 0.16 0.16 0.15 0.12 0.10 0.09 0.08 0.08 0.12 0.14 0.12 0.15 0.10 0.21 0.29 0.14 0.18 0.24 0.15 0.13 0.16 0.15 0.19

GFSNE_prec_precacc_063.txt.gz
Total_Precipitation_Accumulation
0.33 0.31 0.26 0.24 0.22 0.18 0.17 0.23 0.35 0.19 0.02 0.00 0.02 0.05 0.11 0.15 0.21 0.35 0.47 0.44 0.37 0.35 0.38 0.33 0.25 0.28 0.50 0.62 0.68 0.81 1.01 1.06 0.87 0.74 0.64 0.65 0.77 0.84
0.14 0.11 0.09 0.07 0.06 0.08 0.09 0.08 0.09 0.15 0.08 0.00 0.00 0.00 0.00 0.03 0.09 0.19 0.40 0.51 0.34 0.29 0.35 0.41 0.44 0.42 0.38 0.58 0.86 0.91 0.94 1.04 1.02 0.99 0.97 0.74 0.70 0.79
0.02 0.02 0.02 0.02 0.01 0.01 0.02 0.03 0.05 0.07 0.03 0.00 0.00 0.00 0.00 0.01 0.03 0.10 0.22 0.43 0.54 0.38 0.27 0.33 0.41 0.47 0.53 0.47 0.50 0.85 1.20 1.08 0.87 0.78 0.80 0.89 0.88 0.79
0.01 0.00 0.00 0.00 0.00 0.00 0.01 0.01 0.01 0.01 0.02 0.01 0.00 0.00 0.00 0.00 0.01 0.03 0.10 0.24 0.42 0.53 0.49 0.31 0.26 0.33 0.42 0.55 0.56 0.55 0.71 1.17 1.17 0.86 0.70 0.75 0.88 1.01
0.00 0.00 0.00 0.00 0.00 0.00 0.00 0.01 0.01 0.01 0.02 0.03 0.01 0.00 0.00 0.00 0.00 0.02 0.03 0.07 0.16 0.30 0.43 0.55 0.45 0.28 0.28 0.32 0.42 0.53 0.50 0.50 0.85 1.10 0.90 0.73 0.69 0.74
0.01 0.01 0.00 0.00 0.00 0.00 0.01 0.01 0.01 0.03 0.03 0.03 0.01 0.00 0.00 0.00 0.02 0.03 0.04 0.05 0.06 0.13 0.31 0.49 0.55 0.48 0.31 0.24 0.28 0.31 0.40 0.52 0.54 0.69 1.04 1.04 0.80 0.79
0.00 0.00 0.00 0.00 0.00 0.01 0.02 0.01 0.03 0.04 0.04 0.05 0.04 0.03 0.02 0.02 0.04 0.06 0.08 0.06 0.07 0.09 0.18 0.36 0.52 0.60 0.61 0.38 0.22 0.25 0.31 0.34 0.43 0.53 0.61 0.83 1.09 0.94
0.01 0.00 0.00 0.00 0.01 0.01 0.00 0.00 0.01 0.05 0.10 0.12 0.12 0.10 0.06 0.06 0.10 0.15 0.14 0.12 0.12 0.11 0.16 0.27 0.43 0.54 0.66 0.69 0.51 0.35 0.27 0.32 0.35 0.41 0.50 0.54 0.63 0.99
0.01 0.01 0.01 0.00 0.00 0.01 0.01 0.01 0.01 0.02 0.09 0.17 0.26 0.16 0.15 0.11 0.12 0.17 0.14 0.15 0.13 0.08 0.16 0.26 0.35 0.46 0.50 0.68 0.72 0.52 0.44 0.45 0.48 0.47 0.46 0.54 0.53 0.57
0.01 0.01 0.02 0.01 0.01 0.03 0.07 0.13 0.09 0.05 0.04 0.05 0.14 0.12 0.08 0.07 0.13 0.18 0.25 0.28 0.20 0.07 0.12 0.35 0.26 0.38 0.39 0.46 0.67 0.86 0.73 0.61 0.63 0.69 0.63 0.57 0.64 0.62
0.01 0.02 0.04 0.06 0.04 0.08 0.31 0.39 0.18 0.07 0.04 0.06 0.08 0.08 0.08 0.09 0.15 0.46 0.53 0.56 0.40 0.15 0.15 0.27 0.20 0.29 0.38 0.51 0.65 0.70 0.89 0.96 0.80 0.76 0.78 0.69 0.63 0.67
0.05 0.04 0.03 0.04 0.11 0.19 0.45 0.47 0.39 0.11 0.04 0.07 0.07 0.05 0.05 0.08 0.09 0.35 0.50 0.59 0.39 0.31 0.12 0.26 0.19 0.25 0.49 0.52 0.52 0.71 0.82 0.86 0.93 0.86 0.74 0.75 0.72 0.72
0.10 0.06 0.06 0.20 0.28 0.22 0.25 0.39 0.36 0.15 0.11 0.14 0.16 0.15 0.15 0.15 0.16 0.22 0.35 0.60 0.53 0.32 0.05 0.31 0.31 0.21 0.38 0.44 0.57 0.63 0.74 0.89 0.94 0.97 0.95 0.81 0.75 0.69
0.21 0.16 0.22 0.18 0.18 0.17 0.19 0.27 0.23 0.22 0.31 0.35 0.32 0.25 0.27 0.22 0.19 0.22 0.24 0.29 0.31 0.31 0.16 0.51 0.65 0.26 0.39 0.43 0.40 0.61 0.77 0.93 1.10 0.93 0.95 1.00 0.95 0.88
0.25 0.23 0.17 0.13 0.10 0.08 0.13 0.20 0.21 0.35 0.39 0.36 0.31 0.21 0.17 0.17 0.17 0.24 0.30 0.36 0.37 0.38 0.33 0.43 0.39 0.23 0.35 0.41 0.39 0.48 0.75 0.88 0.81 0.74 0.78 0.80 0.77 0.74
0.14 0.12 0.16 0.15 0.13 0.19 0.23 0.23 0.38 0.47 0.40 0.35 0.23 0.19 0.21 0.23 0.27 0.28 0.31 0.36 0.65 0.69 0.45 0.36 0.30 0.38 0.45 0.30 0.24 0.31 0.35 0.56 0.73 0.71 0.67 0.76 0.78 0.71
0.18 0.21 0.16 0.11 0.11 0.12 0.16 0.13 0.15 0.14 0.19 0.20 0.21 0.19 0.25 0.21 0.24 0.29 0.30 0.26 0.42 0.34 0.45 0.44 0.41 0.42 0.42 0.41 0.52 0.31 0.34 0.42 0.49 0.53 0.56 0.65 0.73 0.82
0.22 0.18 0.16 0.17 0.19 0.17 0.20 0.21 0.12 0.13 0.11 0.13 0.21 0.18 0.21 0.27 0.19 0.16 0.22 0.28 0.23 0.29 0.30 0.31 0.40 0.70 0.68 0.45 0.31 0.43 0.84 0.74 0.51 0.36 0.42 0.56 0.66 0.68
0.24 0.19 0.20 0.22 0.21 0.18 0.16 0.19 0.24 0.27 0.18 0.16 0.23 0.25 0.18 0.20 0.29 0.21 0.22 0.32 0.31 0.23 0.34 0.39 0.40 0.45 0.64 0.77 0.35 0.23 0.42 0.38 0.37 0.37 0.42 0.53 0.64 0.62
0.18 0.19 0.21 0.20 0.18 0.13 0.12 0.14 0.16 0.18 0.17 0.17 0.26 0.21 0.16 0.13 0.16 0.16 0.18 0.18 0.20 0.19 0.17 0.22 0.26 0.28 0.38 0.43 0.50 0.32 0.26 0.22 0.28 0.33 0.43 0.50 0.52 0.55
0.18 0.19 0.21 0.18 0.14 0.12 0.12 0.11 0.14 0.16 0.17 0.17 0.20 0.19 0.15 0.15 0.12 0.11 0.09 0.10 0.10 0.13 0.18 0.20 0.19 0.19 0.24 0.30 0.42 0.44 0.38 0.28 0.18 0.23 0.30 0.48 0.49 0.36
0.19 0.19 0.16 0.16 0.15 0.11 0.11 0.11 0.09 0.11 0.09 0.10 0.14 0.14 0.15 0.15 0.13 0.14 0.12 0.10 0.13 0.13 0.13 0.13 0.16 0.15 0.24 0.24 0.38 0.33 0.28 0.34 0.25 0.18 0.21 0.28 0.36 0.42
0.21 0.21 0.16 0.14 0.13 0.13 0.12 0.09 0.07 0.09 0.09 0.09 0.09 0.12 0.15 0.16 0.16 0.15 0.12 0.10 0.09 0.08 0.08 0.12 0.14 0.12 0.15 0.10 0.22 0.29 0.14 0.19 0.24 0.15 0.13 0.18 0.18 0.21